Location: Newark
(7.0858°N, 171.3717°E)
Time: 02:55:55
(UTC+00:00)

Transit 4A - Pass Details

Date: 05 December 2020
Orbit: 864 x 980 km, 66.8° (Epoch: 20 January)

Event Time Altitude Azimuth Distance (km) Brightness Sun altitude
Rises 04:05:27 0° 9° (N) 3,597 10.6 28.6°
Reaches altitude 10° 04:09:08 10° 30° (NNE) 2,629 9.9 27.8°
Maximum altitude 04:12:41 16° 66° (ENE) 2,212 9.5 27.0°
Drops below altitude 10° 04:16:10 10° 102° (ESE) 2,584 9.9 26.3°
Sets 04:19:42 0° 124° (ESE) 3,502 10.7 25.5°
